Location: Albany
(35.0170°S, 117.8920°E)
Time: 17:19:27
(UTC+08:00)

Explorer 11/Cluster Stage 4 - Pass Details

Date: 30 January 2021
Orbit: 467 x 1257 km, 28.8° (Epoch: 02 March)

Event Time Altitude Azimuth Distance (km) Brightness Sun altitude
Rises 07:36:10 0° 285° (WNW) 4,033 9.7 25.0°
Reaches altitude 10° 07:39:17 10° 290° (WNW) 2,977 9.1 25.7°
Maximum altitude 07:46:16 49° 2° (N) 1,229 7.9 27.1°
Drops below altitude 10° 07:51:58 10° 75° (ENE) 2,434 10.5 28.3°
Sets 07:54:18 0° 81° (E) 3,245 10.9 28.7°
